Time,TemperatureF,DewpointF,PressureIn,WindDirection,WindDirectionDegrees,WindSpeedMPH,WindSpeedGustMPH,Humidity,HourlyPrecipIn,Conditions,Clouds,dailyrainin,SoftwareType,DateUTC
2013-02-13 00:05:00,19.7,14.2,30.43,WNW,290,1.0,4.0,79,0.00,,,0.00,Wunderground v.1.15,2013-02-13 07:05:00,
2013-02-13 00:14:00,20.6,15.7,30.42,WNW,286,1.0,2.0,81,0.00,,,0.00,Wunderground v.1.15,2013-02-13 07:14:00,
2013-02-13 00:19:00,20.8,16.2,30.43,WNW,286,0.0,0.0,82,0.00,,,0.00,Wunderground v.1.15,2013-02-13 07:19:00,
2013-02-13 00:24:00,21.0,16.4,30.42,WNW,286,1.0,3.0,82,0.00,,,0.00,Wunderground v.1.15,2013-02-13 07:24:00,
2013-02-13 00:29:00,20.9,15.7,30.42,WNW,286,1.0,1.0,80,0.00,,,0.00,Wunderground v.1.15,2013-02-13 07:29:00,
2013-02-13 00:40:00,20.9,15.4,30.42,WNW,286,0.0,0.0,79,0.00,,,0.00,Wunderground v.1.15,2013-02-13 07:40:00,
2013-02-13 00:45:00,21.0,15.2,30.42,WNW,286,0.0,0.0,78,0.00,,,0.00,Wunderground v.1.15,2013-02-13 07:45:00,
2013-02-13 00:50:00,21.0,15.2,30.41,WNW,286,0.0,0.0,78,0.00,,,0.00,Wunderground v.1.15,2013-02-13 07:50:00,
2013-02-13 00:55:00,21.1,15.3,30.41,WNW,286,0.0,0.0,78,0.00,,,0.00,Wunderground v.1.15,2013-02-13 07:55:00,
2013-02-13 01:00:00,21.2,15.4,30.40,WNW,286,0.0,0.0,78,0.00,,,0.00,Wunderground v.1.15,2013-02-13 08:00:00,
2013-02-13 01:05:00,21.2,15.1,30.40,WNW,286,0.0,0.0,77,0.00,,,0.00,Wunderground v.1.15,2013-02-13 08:05:00,
2013-02-13 01:14:00,21.5,15.4,30.39,NW,309,0.0,0.0,77,0.00,,,0.00,Wunderground v.1.15,2013-02-13 08:14:00,
2013-02-13 01:24:00,21.7,15.6,30.39,NNW,333,1.0,1.0,77,0.00,,,0.00,Wunderground v.1.15,2013-02-13 08:24:00,
2013-02-13 01:29:00,21.8,16.0,30.38,NNW,333,0.0,2.0,78,0.00,,,0.00,Wunderground v.1.15,2013-02-13 08:29:00,
2013-02-13 01:34:00,22.1,16.3,30.38,North,349,1.0,2.0,78,0.00,,,0.00,Wunderground v.1.15,2013-02-13 08:34:00,
2013-02-13 01:40:00,22.4,16.6,30.38,North,350,1.0,1.0,78,0.00,,,0.00,Wunderground v.1.15,2013-02-13 08:40:00,
2013-02-13 01:49:00,22.8,17.0,30.38,North,5,2.0,2.0,78,0.00,,,0.00,Wunderground v.1.15,2013-02-13 08:49:00,
2013-02-13 01:54:00,22.9,17.1,30.39,NW,317,2.0,4.0,78,0.00,,,0.00,Wunderground v.1.15,2013-02-13 08:54:00,
2013-02-13 01:59:00,22.8,17.0,30.39,NW,317,2.0,2.0,78,0.00,,,0.00,Wunderground v.1.15,2013-02-13 08:59:00,
2013-02-13 02:05:00,22.9,17.4,30.39,NW,317,1.0,2.0,79,0.00,,,0.00,Wunderground v.1.15,2013-02-13 09:05:00,
2013-02-13 02:15:00,22.6,17.1,30.38,NW,316,2.0,2.0,79,0.00,,,0.00,Wunderground v.1.15,2013-02-13 09:15:00,
2013-02-13 02:20:00,22.5,17.3,30.38,NW,315,1.0,1.0,80,0.00,,,0.00,Wunderground v.1.15,2013-02-13 09:20:00,
2013-02-13 02:25:00,22.4,17.2,30.39,NW,315,0.0,3.0,80,0.00,,,0.00,Wunderground v.1.15,2013-02-13 09:25:00,
2013-02-13 02:29:00,22.3,17.1,30.38,NW,316,2.0,3.0,80,0.00,,,0.00,Wunderground v.1.15,2013-02-13 09:29:00,
2013-02-13 02:34:00,22.1,16.9,30.38,NW,316,2.0,3.0,80,0.00,,,0.00,Wunderground v.1.15,2013-02-13 09:34:00,
2013-02-13 02:39:00,22.0,16.8,30.38,NW,315,2.0,3.0,80,0.00,,,0.00,Wunderground v.1.15,2013-02-13 09:39:00,
2013-02-13 02:49:00,21.3,16.1,30.39,NW,311,3.0,3.0,80,0.00,,,0.00,Wunderground v.1.15,2013-02-13 09:49:00,
2013-02-13 02:54:00,21.2,16.0,30.39,NW,310,2.0,3.0,80,0.00,,,0.00,Wunderground v.1.15,2013-02-13 09:54:00,
2013-02-13 02:59:00,21.2,16.0,30.39,NW,310,1.0,1.0,80,0.00,,,0.00,Wunderground v.1.15,2013-02-13 09:59:00,
2013-02-13 03:05:00,21.2,16.3,30.38,NW,311,1.0,1.0,81,0.00,,,0.00,Wunderground v.1.15,2013-02-13 10:05:00,
2013-02-13 03:15:00,21.0,16.1,30.37,NW,311,0.0,0.0,81,0.00,,,0.00,Wunderground v.1.15,2013-02-13 10:15:00,
2013-02-13 03:20:00,20.8,15.9,30.38,NW,311,0.0,2.0,81,0.00,,,0.00,Wunderground v.1.15,2013-02-13 10:20:00,
2013-02-13 03:25:00,20.8,15.9,30.38,NW,311,1.0,2.0,81,0.00,,,0.00,Wunderground v.1.15,2013-02-13 10:25:00,
2013-02-13 03:30:00,20.8,15.9,30.38,NW,311,1.0,1.0,81,0.00,,,0.00,Wunderground v.1.15,2013-02-13 10:30:00,
2013-02-13 03:40:00,20.7,15.8,30.38,NW,311,0.0,0.0,81,0.00,,,0.00,Wunderground v.1.15,2013-02-13 10:40:00,
2013-02-13 03:49:00,20.6,15.7,30.38,NW,311,0.0,0.0,81,0.00,,,0.00,Wunderground v.1.15,2013-02-13 10:49:00,
2013-02-13 03:54:00,20.6,15.7,30.38,NW,311,0.0,0.0,81,0.00,,,0.00,Wunderground v.1.15,2013-02-13 10:54:00,
2013-02-13 03:59:00,20.6,15.7,30.38,NW,311,0.0,0.0,81,0.00,,,0.00,Wunderground v.1.15,2013-02-13 10:59:00,
2013-02-13 04:05:00,20.6,15.7,30.39,NW,310,0.0,0.0,81,0.00,,,0.00,Wunderground v.1.15,2013-02-13 11:05:00,
2013-02-13 04:14:00,20.6,15.7,30.38,NW,311,0.0,0.0,81,0.00,,,0.00,Wunderground v.1.15,2013-02-13 11:14:00,
2013-02-13 04:20:00,20.6,15.7,30.38,NW,310,0.0,0.0,81,0.00,,,0.00,Wunderground v.1.15,2013-02-13 11:20:00,
2013-02-13 04:25:00,20.5,15.6,30.38,NW,311,0.0,1.0,81,0.00,,,0.00,Wunderground v.1.15,2013-02-13 11:25:00,
2013-02-13 04:30:00,20.4,15.5,30.38,NW,311,1.0,1.0,81,0.00,,,0.00,Wunderground v.1.15,2013-02-13 11:30:00,
2013-02-13 04:35:00,20.2,15.3,30.38,NW,312,1.0,3.0,81,0.00,,,0.00,Wunderground v.1.15,2013-02-13 11:35:00,
2013-02-13 04:40:00,20.2,15.3,30.38,NW,312,1.0,1.0,81,0.00,,,0.00,Wunderground v.1.15,2013-02-13 11:40:00,
2013-02-13 04:45:00,20.1,15.2,30.38,NW,313,2.0,2.0,81,0.00,,,0.00,Wunderground v.1.15,2013-02-13 11:45:00,
2013-02-13 04:54:00,19.7,14.8,30.38,NW,313,0.0,1.0,81,0.00,,,0.00,Wunderground v.1.15,2013-02-13 11:54:00,
2013-02-13 04:59:00,19.3,14.4,30.40,NW,313,0.0,0.0,81,0.00,,,0.00,Wunderground v.1.15,2013-02-13 11:59:00,
2013-02-13 05:05:00,18.9,13.7,30.43,NW,313,0.0,0.0,80,0.00,,,0.00,Wunderground v.1.15,2013-02-13 12:05:00,
2013-02-13 05:14:00,18.4,13.5,30.43,NW,313,0.0,0.0,81,0.00,,,0.00,Wunderground v.1.15,2013-02-13 12:14:00,
2013-02-13 05:24:00,18.5,13.9,30.43,NW,313,0.0,0.0,82,0.00,,,0.00,Wunderground v.1.15,2013-02-13 12:24:00,
2013-02-13 05:29:00,18.5,13.9,30.43,NW,313,0.0,0.0,82,0.00,,,0.00,Wunderground v.1.15,2013-02-13 12:29:00,
2013-02-13 05:34:00,18.5,13.9,30.43,NW,313,0.0,0.0,82,0.00,,,0.00,Wunderground v.1.15,2013-02-13 12:34:00,
2013-02-13 05:44:00,18.4,14.1,30.43,NW,313,0.0,0.0,83,0.00,,,0.00,Wunderground v.1.15,2013-02-13 12:44:00,
2013-02-13 05:49:00,18.6,14.3,30.43,NW,313,0.0,0.0,83,0.00,,,0.00,Wunderground v.1.15,2013-02-13 12:49:00,
2013-02-13 05:55:00,18.6,14.3,30.43,NW,312,0.0,0.0,83,0.00,,,0.00,Wunderground v.1.15,2013-02-13 12:55:00,
2013-02-13 06:00:00,18.5,14.2,30.43,NW,311,0.0,0.0,83,0.00,,,0.00,Wunderground v.1.15,2013-02-13 13:00:00,
2013-02-13 06:05:00,18.2,13.9,30.47,NW,313,0.0,0.0,83,0.00,,,0.00,Wunderground v.1.15,2013-02-13 13:05:00,
2013-02-13 06:15:00,17.9,13.6,30.46,NW,313,0.0,0.0,83,0.00,,,0.00,Wunderground v.1.15,2013-02-13 13:15:00,
2013-02-13 06:20:00,17.9,13.6,30.46,NW,313,0.0,0.0,83,0.00,,,0.00,Wunderground v.1.15,2013-02-13 13:20:00,
2013-02-13 06:29:00,18.0,14.0,30.46,NW,313,0.0,1.0,84,0.00,,,0.00,Wunderground v.1.15,2013-02-13 13:29:00,
2013-02-13 06:34:00,17.9,13.9,30.46,NW,313,0.0,1.0,84,0.00,,,0.00,Wunderground v.1.15,2013-02-13 13:34:00,
2013-02-13 06:39:00,17.9,13.9,30.46,NW,311,0.0,0.0,84,0.00,,,0.00,Wunderground v.1.15,2013-02-13 13:39:00,
2013-02-13 06:49:00,17.5,13.5,30.47,NW,313,0.0,0.0,84,0.00,,,0.00,Wunderground v.1.15,2013-02-13 13:49:00,
2013-02-13 06:55:00,17.3,13.0,30.47,NW,313,0.0,0.0,83,0.00,,,0.00,Wunderground v.1.15,2013-02-13 13:55:00,
2013-02-13 07:05:00,16.7,12.4,30.48,NW,313,0.0,0.0,83,0.00,,,0.00,Wunderground v.1.15,2013-02-13 14:05:00,
2013-02-13 07:15:00,16.6,12.3,30.48,NW,312,1.0,2.0,83,0.00,,,0.00,Wunderground v.1.15,2013-02-13 14:15:00,
2013-02-13 07:20:00,17.0,13.0,30.48,NW,312,1.0,1.0,84,0.00,,,0.00,Wunderground v.1.15,2013-02-13 14:20:00,
2013-02-13 07:30:00,17.2,15.3,30.48,NW,312,1.0,1.0,92,0.00,,,0.00,Wunderground v.1.15,2013-02-13 14:30:00,
2013-02-13 07:35:00,17.4,13.4,30.48,NW,312,0.0,1.0,84,0.00,,,0.00,Wunderground v.1.15,2013-02-13 14:35:00,
2013-02-13 07:44:00,17.9,13.9,30.48,NW,311,0.0,1.0,84,0.00,,,0.00,Wunderground v.1.15,2013-02-13 14:44:00,
2013-02-13 07:49:00,18.2,14.2,30.48,NW,312,1.0,1.0,84,0.00,,,0.00,Wunderground v.1.15,2013-02-13 14:49:00,
2013-02-13 07:54:00,18.6,14.6,30.47,NW,312,1.0,1.0,84,0.00,,,0.00,Wunderground v.1.15,2013-02-13 14:54:00,
2013-02-13 08:05:00,19.5,15.7,30.48,NW,312,0.0,2.0,85,0.00,,,0.00,Wunderground v.1.15,2013-02-13 15:05:00,
2013-02-13 08:14:00,20.3,16.2,30.48,NW,311,1.0,2.0,84,0.00,,,0.00,Wunderground v.1.15,2013-02-13 15:14:00,
2013-02-13 08:19:00,20.7,16.6,30.49,NW,312,1.0,1.0,84,0.00,,,0.00,Wunderground v.1.15,2013-02-13 15:19:00,
2013-02-13 08:24:00,21.1,17.0,30.49,NW,312,1.0,1.0,84,0.00,,,0.00,Wunderground v.1.15,2013-02-13 15:24:00,
2013-02-13 08:30:00,21.5,17.1,30.47,NW,312,1.0,2.0,83,0.00,,,0.00,Wunderground v.1.15,2013-02-13 15:30:00,
2013-02-13 08:35:00,21.7,17.3,30.48,NW,312,1.0,3.0,83,0.00,,,0.00,Wunderground v.1.15,2013-02-13 15:35:00,
2013-02-13 08:45:00,22.1,17.4,30.48,NW,312,1.0,1.0,82,0.00,,,0.00,Wunderground v.1.15,2013-02-13 15:45:00,
2013-02-13 08:50:00,22.4,17.5,30.49,NW,311,0.0,0.0,81,0.00,,,0.00,Wunderground v.1.15,2013-02-13 15:50:00,
2013-02-13 08:55:00,22.8,17.8,30.49,NW,311,1.0,3.0,81,0.00,,,0.00,Wunderground v.1.15,2013-02-13 15:55:00,
2013-02-13 09:05:00,23.5,18.2,30.49,NW,309,2.0,3.0,80,0.00,,,0.00,Wunderground v.1.15,2013-02-13 16:05:00,
2013-02-13 09:14:00,24.3,18.7,30.49,NW,309,2.0,2.0,79,0.00,,,0.00,Wunderground v.1.15,2013-02-13 16:14:00,
2013-02-13 09:19:00,24.8,18.9,30.48,NW,309,1.0,1.0,78,0.00,,,0.00,Wunderground v.1.15,2013-02-13 16:19:00,
2013-02-13 09:24:00,25.6,19.7,30.48,NW,309,1.0,1.0,78,0.00,,,0.00,Wunderground v.1.15,2013-02-13 16:24:00,
2013-02-13 09:29:00,26.2,20.0,30.47,NW,309,0.0,0.0,77,0.00,,,0.00,Wunderground v.1.15,2013-02-13 16:29:00,
2013-02-13 09:35:00,26.9,20.3,30.46,NW,309,0.0,0.0,76,0.00,,,0.00,Wunderground v.1.15,2013-02-13 16:35:00,
2013-02-13 09:40:00,27.4,20.2,30.46,NW,309,0.0,0.0,74,0.00,,,0.00,Wunderground v.1.15,2013-02-13 16:40:00,
2013-02-13 09:45:00,28.0,20.5,30.46,NW,309,0.0,0.0,73,0.00,,,0.00,Wunderground v.1.15,2013-02-13 16:45:00,
2013-02-13 09:50:00,28.7,20.5,30.45,NW,323,0.0,1.0,71,0.00,,,0.00,Wunderground v.1.15,2013-02-13 16:50:00,
2013-02-13 10:00:00,29.0,20.1,30.45,NW,322,1.0,1.0,69,0.00,,,0.00,Wunderground v.1.15,2013-02-13 17:00:00,
2013-02-13 10:05:00,29.8,20.5,30.45,NW,322,0.0,1.0,68,0.00,,,0.00,Wunderground v.1.15,2013-02-13 17:05:00,
2013-02-13 10:15:00,31.0,21.0,30.44,NNW,338,0.0,2.0,66,0.00,,,0.00,Wunderground v.1.15,2013-02-13 17:15:00,
2013-02-13 10:19:00,31.4,20.2,30.44,South,173,1.0,1.0,63,0.00,,,0.00,Wunderground v.1.15,2013-02-13 17:19:00,
2013-02-13 10:24:00,31.9,20.3,30.43,South,175,1.0,1.0,62,0.00,,,0.00,Wunderground v.1.15,2013-02-13 17:24:00,
2013-02-13 10:29:00,32.6,20.2,30.43,South,175,0.0,0.0,60,0.00,,,0.00,Wunderground v.1.15,2013-02-13 17:29:00,
2013-02-13 10:39:00,33.8,20.2,30.42,ENE,78,1.0,5.0,57,0.00,,,0.00,Wunderground v.1.15,2013-02-13 17:39:00,
2013-02-13 10:44:00,34.0,19.9,30.41,ENE,74,3.0,5.0,56,0.00,,,0.00,Wunderground v.1.15,2013-02-13 17:44:00,
2013-02-13 10:49:00,34.0,19.5,30.42,ENE,75,3.0,3.0,55,0.00,,,0.00,Wunderground v.1.15,2013-02-13 17:49:00,
2013-02-13 11:00:00,35.2,20.2,30.41,East,85,2.0,2.0,54,0.00,,,0.00,Wunderground v.1.15,2013-02-13 18:00:00,
2013-02-13 11:05:00,35.7,20.2,30.41,East,87,1.0,2.0,53,0.00,,,0.00,Wunderground v.1.15,2013-02-13 18:05:00,
2013-02-13 11:15:00,36.4,19.0,30.40,ENE,75,2.0,3.0,49,0.00,,,0.00,Wunderground v.1.15,2013-02-13 18:15:00,
2013-02-13 11:20:00,37.0,19.1,30.40,ENE,78,2.0,2.0,48,0.00,,,0.00,Wunderground v.1.15,2013-02-13 18:20:00,
2013-02-13 11:25:00,37.7,19.3,30.39,North,360,1.0,2.0,47,0.00,,,0.00,Wunderground v.1.15,2013-02-13 18:25:00,
2013-02-13 11:29:00,37.4,18.5,30.39,NE,38,2.0,3.0,46,0.00,,,0.00,Wunderground v.1.15,2013-02-13 18:29:00,
2013-02-13 11:34:00,37.4,19.0,30.40,NNE,32,3.0,3.0,47,0.00,,,0.00,Wunderground v.1.15,2013-02-13 18:34:00,
2013-02-13 11:44:00,38.3,19.3,30.39,NNE,26,2.0,2.0,46,0.00,,,0.00,Wunderground v.1.15,2013-02-13 18:44:00,
2013-02-13 11:49:00,38.9,19.9,30.39,North,350,1.0,3.0,46,0.00,,,0.00,Wunderground v.1.15,2013-02-13 18:49:00,
2013-02-13 11:54:00,39.1,19.5,30.38,NW,310,2.0,3.0,45,0.00,,,0.00,Wunderground v.1.15,2013-02-13 18:54:00,
2013-02-13 11:59:00,39.0,18.9,30.38,ENE,63,3.0,3.0,44,0.00,,,0.00,Wunderground v.1.15,2013-02-13 18:59:00,
2013-02-13 12:05:00,38.6,19.6,30.37,North,355,3.0,3.0,46,0.00,,,0.00,Wunderground v.1.15,2013-02-13 19:05:00,
2013-02-13 12:10:00,38.9,20.4,30.36,West,272,3.0,4.0,47,0.00,,,0.00,Wunderground v.1.15,2013-02-13 19:10:00,
2013-02-13 12:15:00,39.0,20.5,30.36,North,360,3.0,4.0,47,0.00,,,0.00,Wunderground v.1.15,2013-02-13 19:15:00,
2013-02-13 12:25:00,39.3,20.7,30.36,NNW,341,2.0,4.0,47,0.00,,,0.00,Wunderground v.1.15,2013-02-13 19:25:00,
2013-02-13 12:30:00,39.7,20.6,30.35,North,360,2.0,2.0,46,0.00,,,0.00,Wunderground v.1.15,2013-02-13 19:30:00,
2013-02-13 12:35:00,39.8,21.2,30.35,West,281,2.0,5.0,47,0.00,,,0.00,Wunderground v.1.15,2013-02-13 19:35:00,
2013-02-13 12:44:00,38.1,20.1,30.36,WSW,243,5.0,5.0,48,0.00,,,0.00,Wunderground v.1.15,2013-02-13 19:44:00,
2013-02-13 12:49:00,38.0,20.5,30.36,WNW,286,4.0,4.0,49,0.00,,,0.00,Wunderground v.1.15,2013-02-13 19:49:00,
2013-02-13 12:59:00,39.2,22.1,30.34,West,275,2.0,5.0,50,0.00,,,0.00,Wunderground v.1.15,2013-02-13 19:59:00,
2013-02-13 13:05:00,39.3,21.7,30.32,WNW,291,2.0,5.0,49,0.00,,,0.00,Wunderground v.1.15,2013-02-13 20:05:00,
2013-02-13 13:14:00,39.7,21.1,30.31,WNW,291,3.0,5.0,47,0.00,,,0.00,Wunderground v.1.15,2013-02-13 20:14:00,
2013-02-13 13:19:00,40.0,21.4,30.31,NNW,331,2.0,2.0,47,0.00,,,0.00,Wunderground v.1.15,2013-02-13 20:19:00,
2013-02-13 13:24:00,40.4,21.2,30.31,NNW,336,2.0,3.0,46,0.00,,,0.00,Wunderground v.1.15,2013-02-13 20:24:00,
2013-02-13 13:30:00,40.8,20.5,30.30,NNW,342,1.0,1.0,44,0.00,,,0.00,Wunderground v.1.15,2013-02-13 20:30:00,
2013-02-13 13:35:00,40.7,21.5,30.30,NW,326,2.0,3.0,46,0.00,,,0.00,Wunderground v.1.15,2013-02-13 20:35:00,
2013-02-13 13:40:00,40.6,21.4,30.29,WNW,300,2.0,3.0,46,0.00,,,0.00,Wunderground v.1.15,2013-02-13 20:40:00,
2013-02-13 13:50:00,40.9,22.2,30.28,SW,236,3.0,7.0,47,0.00,,,0.00,Wunderground v.1.15,2013-02-13 20:50:00,
2013-02-13 13:55:00,40.6,21.9,30.28,WSW,254,3.0,7.0,47,0.00,,,0.00,Wunderground v.1.15,2013-02-13 20:55:00,
2013-02-13 14:00:00,40.7,22.0,30.28,West,265,3.0,4.0,47,0.00,,,0.00,Wunderground v.1.15,2013-02-13 21:00:00,
2013-02-13 14:05:00,40.8,22.6,30.29,NW,319,3.0,4.0,48,0.00,,,0.00,Wunderground v.1.15,2013-02-13 21:05:00,
2013-02-13 14:14:00,41.9,23.1,30.29,NNW,333,2.0,5.0,47,0.00,,,0.00,Wunderground v.1.15,2013-02-13 21:14:00,
2013-02-13 14:19:00,42.5,23.7,30.29,NW,311,3.0,4.0,47,0.00,,,0.00,Wunderground v.1.15,2013-02-13 21:19:00,
2013-02-13 14:24:00,42.3,23.0,30.29,WNW,282,3.0,4.0,46,0.00,,,0.00,Wunderground v.1.15,2013-02-13 21:24:00,
2013-02-13 14:29:00,41.8,22.5,30.29,WNW,291,4.0,4.0,46,0.00,,,0.00,Wunderground v.1.15,2013-02-13 21:29:00,
2013-02-13 14:34:00,41.4,21.6,30.29,NNW,345,4.0,4.0,45,0.00,,,0.00,Wunderground v.1.15,2013-02-13 21:34:00,
2013-02-13 14:39:00,41.1,20.8,30.29,WNW,296,4.0,4.0,44,0.00,,,0.00,Wunderground v.1.15,2013-02-13 21:39:00,
2013-02-13 14:44:00,40.8,20.5,30.29,NW,313,3.0,4.0,44,0.00,,,0.00,Wunderground v.1.15,2013-02-13 21:44:00,
2013-02-13 14:50:00,40.6,20.4,30.28,West,274,3.0,6.0,44,0.00,,,0.00,Wunderground v.1.15,2013-02-13 21:50:00,
2013-02-13 15:00:00,39.7,21.1,30.30,WNW,290,5.0,5.0,47,0.00,,,0.00,Wunderground v.1.15,2013-02-13 22:00:00,
2013-02-13 15:05:00,40.1,21.5,30.29,WNW,296,4.0,6.0,47,0.00,,,0.00,Wunderground v.1.15,2013-02-13 22:05:00,
2013-02-13 15:15:00,40.4,21.7,30.29,NNW,327,4.0,4.0,47,0.00,,,0.00,Wunderground v.1.15,2013-02-13 22:15:00,
2013-02-13 15:25:00,40.6,22.4,30.28,West,281,5.0,5.0,48,0.00,,,0.00,Wunderground v.1.15,2013-02-13 22:25:00,
2013-02-13 15:30:00,40.4,22.7,30.29,NW,324,5.0,5.0,49,0.00,,,0.00,Wunderground v.1.15,2013-02-13 22:30:00,
2013-02-13 15:40:00,40.0,23.3,30.29,NW,313,5.0,5.0,51,0.00,,,0.00,Wunderground v.1.15,2013-02-13 22:40:00,
2013-02-13 15:45:00,40.1,24.3,30.29,NNW,333,5.0,5.0,53,0.00,,,0.00,Wunderground v.1.15,2013-02-13 22:45:00,
2013-02-13 15:54:00,39.7,24.0,30.29,WNW,295,5.0,5.0,53,0.00,,,0.00,Wunderground v.1.15,2013-02-13 22:54:00,
2013-02-13 15:59:00,39.4,23.2,30.29,West,281,4.0,4.0,52,0.00,,,0.00,Wunderground v.1.15,2013-02-13 22:59:00,
2013-02-13 16:05:00,39.6,24.3,30.30,NW,314,4.0,4.0,54,0.00,,,0.00,Wunderground v.1.15,2013-02-13 23:05:00,
2013-02-13 16:14:00,40.2,24.0,30.30,NW,306,5.0,7.0,52,0.00,,,0.00,Wunderground v.1.15,2013-02-13 23:14:00,
2013-02-13 16:19:00,40.8,23.6,30.29,NNW,329,5.0,5.0,50,0.00,,,0.00,Wunderground v.1.15,2013-02-13 23:19:00,
2013-02-13 16:25:00,41.1,23.4,30.28,NW,321,4.0,5.0,49,0.00,,,0.00,Wunderground v.1.15,2013-02-13 23:25:00,
2013-02-13 16:30:00,41.0,23.3,30.28,WNW,303,4.0,5.0,49,0.00,,,0.00,Wunderground v.1.15,2013-02-13 23:30:00,
2013-02-13 16:35:00,41.2,23.0,30.28,NW,304,4.0,5.0,48,0.00,,,0.00,Wunderground v.1.15,2013-02-13 23:35:00,
2013-02-13 16:40:00,41.3,22.1,30.28,NW,311,4.0,6.0,46,0.00,,,0.00,Wunderground v.1.15,2013-02-13 23:40:00,
2013-02-13 16:45:00,41.2,22.0,30.28,NW,309,5.0,6.0,46,0.00,,,0.00,Wunderground v.1.15,2013-02-13 23:45:00,
2013-02-13 16:50:00,41.1,20.8,30.28,West,281,5.0,5.0,44,0.00,,,0.00,Wunderground v.1.15,2013-02-13 23:50:00,
2013-02-13 17:00:00,40.3,20.1,30.29,WNW,292,7.0,7.0,44,0.00,,,0.00,Wunderground v.1.15,2013-02-14 00:00:00,
2013-02-13 17:05:00,40.3,20.6,30.30,WNW,295,5.0,7.0,45,0.00,,,0.00,Wunderground v.1.15,2013-02-14 00:05:00,
2013-02-13 17:15:00,39.9,19.7,30.29,NW,326,4.0,4.0,44,0.00,,,0.00,Wunderground v.1.15,2013-02-14 00:15:00,
2013-02-13 17:20:00,39.5,20.4,30.29,NNW,333,4.0,4.0,46,0.00,,,0.00,Wunderground v.1.15,2013-02-14 00:20:00,
2013-02-13 17:29:00,38.7,21.6,30.30,NNW,336,2.0,2.0,50,0.00,,,0.00,Wunderground v.1.15,2013-02-14 00:29:00,
2013-02-13 17:34:00,38.1,22.0,30.30,NNW,339,2.0,2.0,52,0.00,,,0.00,Wunderground v.1.15,2013-02-14 00:34:00,
2013-02-13 17:39:00,37.4,22.3,30.29,NNW,333,2.0,2.0,54,0.00,,,0.00,Wunderground v.1.15,2013-02-14 00:39:00,
2013-02-13 17:49:00,36.0,21.8,30.31,NNW,340,1.0,1.0,56,0.00,,,0.00,Wunderground v.1.15,2013-02-14 00:49:00,
2013-02-13 17:54:00,35.4,22.1,30.31,North,355,2.0,2.0,58,0.00,,,0.00,Wunderground v.1.15,2013-02-14 00:54:00,
2013-02-13 18:00:00,34.7,21.8,30.32,NNW,348,1.0,1.0,59,0.00,,,0.00,Wunderground v.1.15,2013-02-14 01:00:00,
2013-02-13 18:05:00,34.3,21.8,30.33,North,355,1.0,1.0,60,0.00,,,0.00,Wunderground v.1.15,2013-02-14 01:05:00,
2013-02-13 18:15:00,33.2,21.2,30.34,NNW,346,1.0,2.0,61,0.00,,,0.00,Wunderground v.1.15,2013-02-14 01:15:00,
2013-02-13 18:20:00,32.7,21.1,30.34,NNW,346,1.0,1.0,62,0.00,,,0.00,Wunderground v.1.15,2013-02-14 01:20:00,
2013-02-13 18:25:00,32.4,21.2,30.34,NNW,346,0.0,1.0,63,0.00,,,0.00,Wunderground v.1.15,2013-02-14 01:25:00,
2013-02-13 18:35:00,32.2,21.4,30.36,NNW,348,1.0,1.0,64,0.00,,,0.00,Wunderground v.1.15,2013-02-14 01:35:00,
2013-02-13 18:40:00,31.9,21.5,30.36,NNW,348,0.0,0.0,65,0.00,,,0.00,Wunderground v.1.15,2013-02-14 01:40:00,
2013-02-13 18:45:00,31.1,20.3,30.36,NNW,348,0.0,1.0,64,0.00,,,0.00,Wunderground v.1.15,2013-02-14 01:45:00,
2013-02-13 18:50:00,30.1,20.5,30.37,West,268,1.0,2.0,67,0.00,,,0.00,Wunderground v.1.15,2013-02-14 01:50:00,
2013-02-13 18:54:00,29.9,21.0,30.37,West,271,2.0,3.0,69,0.00,,,0.00,Wunderground v.1.15,2013-02-14 01:54:00,
2013-02-13 19:05:00,30.0,21.1,30.36,West,268,2.0,2.0,69,0.00,,,0.00,Wunderground v.1.15,2013-02-14 02:05:00,
2013-02-13 19:14:00,30.2,21.9,30.36,West,268,0.0,1.0,71,0.00,,,0.00,Wunderground v.1.15,2013-02-14 02:14:00,
2013-02-13 19:19:00,30.3,22.0,30.36,West,268,0.0,0.0,71,0.00,,,0.00,Wunderground v.1.15,2013-02-14 02:19:00,
2013-02-13 19:24:00,30.4,22.1,30.36,West,268,0.0,0.0,71,0.00,,,0.00,Wunderground v.1.15,2013-02-14 02:24:00,
2013-02-13 19:29:00,30.4,22.1,30.36,West,268,0.0,0.0,71,0.00,,,0.00,Wunderground v.1.15,2013-02-14 02:29:00,
2013-02-13 19:35:00,30.1,21.8,30.36,West,268,0.0,0.0,71,0.00,,,0.00,Wunderground v.1.15,2013-02-14 02:35:00,
2013-02-13 19:40:00,29.8,21.9,30.36,West,268,0.0,0.0,72,0.00,,,0.00,Wunderground v.1.15,2013-02-14 02:40:00,
2013-02-13 19:45:00,29.7,21.8,30.36,West,268,0.0,0.0,72,0.00,,,0.00,Wunderground v.1.15,2013-02-14 02:45:00,
2013-02-13 19:50:00,29.5,21.6,30.36,West,268,0.0,0.0,72,0.00,,,0.00,Wunderground v.1.15,2013-02-14 02:50:00,
2013-02-13 19:55:00,29.4,21.5,30.36,West,268,0.0,0.0,72,0.00,,,0.00,Wunderground v.1.15,2013-02-14 02:55:00,
2013-02-13 20:00:00,29.0,21.1,30.36,West,268,0.0,0.0,72,0.00,,,0.00,Wunderground v.1.15,2013-02-14 03:00:00,
2013-02-13 20:05:00,28.7,20.8,30.34,West,268,0.0,0.0,72,0.00,,,0.00,Wunderground v.1.15,2013-02-14 03:05:00,
2013-02-13 20:15:00,28.1,20.6,30.35,West,268,0.0,0.0,73,0.00,,,0.00,Wunderground v.1.15,2013-02-14 03:15:00,
2013-02-13 20:20:00,28.1,20.9,30.35,West,268,0.0,0.0,74,0.00,,,0.00,Wunderground v.1.15,2013-02-14 03:20:00,
2013-02-13 20:25:00,28.1,20.9,30.35,West,268,0.0,0.0,74,0.00,,,0.00,Wunderground v.1.15,2013-02-14 03:25:00,
2013-02-13 20:29:00,27.9,20.7,30.35,West,268,0.0,0.0,74,0.00,,,0.00,Wunderground v.1.15,2013-02-14 03:29:00,
2013-02-13 20:39:00,27.5,20.3,30.35,West,268,0.0,0.0,74,0.00,,,0.00,Wunderground v.1.15,2013-02-14 03:39:00,
2013-02-13 20:44:00,27.4,20.2,30.35,West,268,0.0,0.0,74,0.00,,,0.00,Wunderground v.1.15,2013-02-14 03:44:00,
2013-02-13 20:49:00,27.3,20.4,30.34,West,268,0.0,0.0,75,0.00,,,0.00,Wunderground v.1.15,2013-02-14 03:49:00,
2013-02-13 20:54:00,27.2,20.0,30.35,West,268,0.0,0.0,74,0.00,,,0.00,Wunderground v.1.15,2013-02-14 03:54:00,
2013-02-13 20:59:00,27.0,19.8,30.35,West,268,0.0,0.0,74,0.00,,,0.00,Wunderground v.1.15,2013-02-14 03:59:00,
2013-02-13 21:05:00,26.9,20.0,30.32,West,268,0.0,0.0,75,0.00,,,0.00,Wunderground v.1.15,2013-02-14 04:05:00,
2013-02-13 21:10:00,26.9,20.0,30.32,West,268,0.0,0.0,75,0.00,,,0.00,Wunderground v.1.15,2013-02-14 04:10:00,
2013-02-13 21:15:00,26.8,20.2,30.32,West,268,0.0,0.0,76,0.00,,,0.00,Wunderground v.1.15,2013-02-14 04:15:00,
2013-02-13 21:20:00,26.6,20.1,30.32,West,268,0.0,0.0,76,0.00,,,0.00,Wunderground v.1.15,2013-02-14 04:20:00,
2013-02-13 21:25:00,26.4,19.9,30.32,West,268,0.0,0.0,76,0.00,,,0.00,Wunderground v.1.15,2013-02-14 04:25:00,
2013-02-13 21:30:00,26.3,20.1,30.33,West,268,0.0,0.0,77,0.00,,,0.00,Wunderground v.1.15,2013-02-14 04:30:00,
2013-02-13 21:35:00,26.1,19.9,30.33,West,268,0.0,0.0,77,0.00,,,0.00,Wunderground v.1.15,2013-02-14 04:35:00,
2013-02-13 21:44:00,25.9,20.0,30.33,West,269,0.0,0.0,78,0.00,,,0.00,Wunderground v.1.15,2013-02-14 04:44:00,
2013-02-13 21:49:00,25.7,19.8,30.33,West,269,1.0,1.0,78,0.00,,,0.00,Wunderground v.1.15,2013-02-14 04:49:00,
2013-02-13 21:54:00,25.5,19.9,30.33,West,269,0.0,1.0,79,0.00,,,0.00,Wunderground v.1.15,2013-02-14 04:54:00,
2013-02-13 21:59:00,25.3,19.7,30.33,West,269,0.0,0.0,79,0.00,,,0.00,Wunderground v.1.15,2013-02-14 04:59:00,
2013-02-13 22:05:00,24.9,19.3,30.30,West,269,0.0,0.0,79,0.00,,,0.00,Wunderground v.1.15,2013-02-14 05:05:00,
2013-02-13 22:09:00,24.4,18.8,30.29,West,269,0.0,0.0,79,0.00,,,0.00,Wunderground v.1.15,2013-02-14 05:09:00,
2013-02-13 22:14:00,24.0,18.4,30.30,West,269,0.0,0.0,79,0.00,,,0.00,Wunderground v.1.15,2013-02-14 05:14:00,
2013-02-13 22:19:00,23.9,18.6,30.31,West,269,0.0,0.0,80,0.00,,,0.00,Wunderground v.1.15,2013-02-14 05:19:00,
2013-02-13 22:24:00,23.8,18.5,30.31,West,269,0.0,0.0,80,0.00,,,0.00,Wunderground v.1.15,2013-02-14 05:24:00,
2013-02-13 22:29:00,23.8,18.8,30.31,West,269,0.0,0.0,81,0.00,,,0.00,Wunderground v.1.15,2013-02-14 05:29:00,
2013-02-13 22:35:00,23.9,18.9,30.31,West,269,0.0,0.0,81,0.00,,,0.00,Wunderground v.1.15,2013-02-14 05:35:00,
2013-02-13 22:45:00,24.1,19.4,30.31,West,269,0.0,0.0,82,0.00,,,0.00,Wunderground v.1.15,2013-02-14 05:45:00,
2013-02-13 22:50:00,24.1,19.4,30.31,West,269,0.0,0.0,82,0.00,,,0.00,Wunderground v.1.15,2013-02-14 05:50:00,
2013-02-13 22:55:00,24.3,19.6,30.31,West,269,0.0,0.0,82,0.00,,,0.00,Wunderground v.1.15,2013-02-14 05:55:00,
2013-02-13 23:00:00,24.3,19.9,30.31,West,269,0.0,0.0,83,0.00,,,0.00,Wunderground v.1.15,2013-02-14 06:00:00,
2013-02-13 23:05:00,24.2,19.8,30.28,West,269,0.0,0.0,83,0.00,,,0.00,Wunderground v.1.15,2013-02-14 06:05:00,
2013-02-13 23:15:00,24.2,19.8,30.28,West,269,0.0,0.0,83,0.00,,,0.00,Wunderground v.1.15,2013-02-14 06:15:00,
2013-02-13 23:24:00,23.4,18.7,30.29,West,269,0.0,2.0,82,0.00,,,0.00,Wunderground v.1.15,2013-02-14 06:24:00,
2013-02-13 23:29:00,23.5,19.1,30.29,West,269,0.0,0.0,83,0.00,,,0.00,Wunderground v.1.15,2013-02-14 06:29:00,
2013-02-13 23:34:00,23.8,19.4,30.28,West,269,0.0,0.0,83,0.00,,,0.00,Wunderground v.1.15,2013-02-14 06:34:00,
2013-02-13 23:39:00,23.9,19.5,30.28,West,269,0.0,0.0,83,0.00,,,0.00,Wunderground v.1.15,2013-02-14 06:39:00,
2013-02-13 23:45:00,23.8,19.4,30.28,West,269,0.0,0.0,83,0.00,,,0.00,Wunderground v.1.15,2013-02-14 06:45:00,
2013-02-13 23:50:00,23.9,19.8,30.28,West,269,1.0,1.0,84,0.00,,,0.00,Wunderground v.1.15,2013-02-14 06:50:00,
2013-02-13 23:55:00,24.1,20.0,30.28,West,269,1.0,1.0,84,0.00,,,0.00,Wunderground v.1.15,2013-02-14 06:55:00,